Location: Newark
(45.7667°N, 11.5167°E)
Time: 01:00:38
(UTC+00:00)

Envisat - Pass Details

Date: 25 January 2020
Orbit: 764 x 766 km, 98.1° (Epoch: 27 February)

Event Time Altitude Azimuth Distance (km) Brightness Sun altitude
Rises 04:32:07 0° 31° (NNE) 3,242 6.6 -22.8°
Reaches altitude 10° 04:35:39 10° 57° (ENE) 2,309 6.2 -22.2°
Maximum altitude 04:38:13 14° 88° (E) 2,045 6.2 -21.8°
Drops below altitude 10° 04:40:48 10° 119° (ESE) 2,300 6.4 -21.3°
Sets 04:44:17 0° 144° (SE) 3,219 6.9 -20.7°
